• In Russia
  • List of Countries
  • For 7 days
  • Water Temperature
  • Satellite Maps
  • Weather Map
  • Weather Widgets
  • user-avatar
    Login

    Hourly Weather Vanadzor

    Today, 27 May, Monday

    Time Temperature Precipitation Wind Pressure Humidity
    00:00 +9°C° 0 mm 1 mps 635 mmHg 82%
    01:00 +9°C° 0 mm 1 mps 635 mmHg 82%
    02:00 +8°C° 0 mm 1 mps 635 mmHg 81%
    03:00 +8°C° 0 mm 1 mps 635 mmHg 82%
    04:00 +9°C° 0 mm 1 mps 635 mmHg 80%
    05:00 +10°C° 0 mm 1 mps 636 mmHg 79%
    06:00 +11°C° 0 mm 1 mps 636 mmHg 77%
    07:00 +12°C° 0 mm 1 mps 637 mmHg 69%
    08:00 +14°C° 0 mm 1 mps 637 mmHg 61%
    09:00 +16°C° 0 mm 1 mps 638 mmHg 52%
    10:00 +18°C° 0 mm 1 mps 638 mmHg 50%
    11:00 +18°C° 0 mm 2 mps 638 mmHg 48%
    12:00 +19°C° 0 mm 2 mps 638 mmHg 46%
    13:00 +19°C° 0 mm 2 mps 638 mmHg 48%
    14:00 +20°C° 0 mm 2 mps 638 mmHg 49%
    15:00 +20°C° 0 mm 2 mps 638 mmHg 50%
    16:00 +19°C° 0.3 mm 2 mps 638 mmHg 57%
    17:00 +18°C° 0.3 mm 2 mps 638 mmHg 65%
    18:00 +17°C° 0.3 mm 2 mps 638 mmHg 72%
    19:00 +15°C° 0.4 mm 2 mps 637 mmHg 78%
    20:00 +14°C° 0.4 mm 1 mps 637 mmHg 84%
    21:00 +12°C° 0.4 mm 1 mps 637 mmHg 91%
    22:00 +11°C° 0.3 mm 1 mps 637 mmHg 91%
    23:00 +11°C° 0.3 mm 1 mps 637 mmHg 91%

    Tomorrow, 28 May, Tuesday

    Time Temperature Precipitation Wind Pressure Humidity
    00:00 +10°C° 0.3 mm 1 mps 637 mmHg 91%
    01:00 +10°C° 0.2 mm 1 mps 637 mmHg 93%
    02:00 +9°C° 0.2 mm 1 mps 637 mmHg 94%
    03:00 +9°C° 0.2 mm 1 mps 637 mmHg 95%
    04:00 +9°C° 0.1 mm 1 mps 637 mmHg 94%
    05:00 +10°C° 0.1 mm 1 mps 637 mmHg 94%
    06:00 +11°C° 0.1 mm 1 mps 638 mmHg 93%
    07:00 +12°C° 0 mm 1 mps 638 mmHg 86%
    08:00 +14°C° 0 mm 1 mps 638 mmHg 80%
    09:00 +16°C° 0 mm 2 mps 639 mmHg 73%
    10:00 +16°C° 0.3 mm 2 mps 639 mmHg 72%
    11:00 +17°C° 0.3 mm 2 mps 639 mmHg 70%
    12:00 +17°C° 0.3 mm 2 mps 639 mmHg 69%
    13:00 +18°C° 0.6 mm 2 mps 638 mmHg 68%
    14:00 +18°C° 0.6 mm 2 mps 638 mmHg 68%
    15:00 +18°C° 0.6 mm 2 mps 638 mmHg 67%
    16:00 +17°C° 0.7 mm 2 mps 638 mmHg 72%
    17:00 +17°C° 0.7 mm 2 mps 638 mmHg 76%
    18:00 +16°C° 0.7 mm 2 mps 637 mmHg 81%
    19:00 +14°C° 0.2 mm 2 mps 637 mmHg 86%
    20:00 +12°C° 0.2 mm 1 mps 637 mmHg 91%
    21:00 +11°C° 0.2 mm 1 mps 637 mmHg 96%
    22:00 +11°C° 0 mm 1 mps 637 mmHg 96%
    23:00 +11°C° 0 mm 1 mps 638 mmHg 97%

    Day after tomorrow, 29 May, Wednesday

    Time Temperature Precipitation Wind Pressure Humidity
    00:00 +11°C° 0 mm 1 mps 638 mmHg 97%
    01:00 +11°C° 0 mm 1 mps 638 mmHg 98%
    02:00 +11°C° 0 mm 1 mps 638 mmHg 98%
    03:00 +10°C° 0 mm 1 mps 638 mmHg 98%
    04:00 +11°C° 0 mm 1 mps 638 mmHg 97%
    05:00 +11°C° 0 mm 1 mps 638 mmHg 96%
    06:00 +12°C° 0 mm 1 mps 638 mmHg 95%
    07:00 +13°C° 0 mm 1 mps 638 mmHg 88%
    08:00 +14°C° 0 mm 1 mps 638 mmHg 81%
    09:00 +16°C° 0 mm 1 mps 639 mmHg 75%
    10:00 +17°C° 0 mm 2 mps 639 mmHg 69%
    11:00 +18°C° 0 mm 2 mps 639 mmHg 64%
    12:00 +20°C° 0 mm 2 mps 639 mmHg 59%
    13:00 +20°C° 0.1 mm 2 mps 639 mmHg 60%
    14:00 +20°C° 0.1 mm 2 mps 638 mmHg 61%
    15:00 +20°C° 0.1 mm 2 mps 638 mmHg 62%
    16:00 +20°C° 0.1 mm 2 mps 638 mmHg 67%
    17:00 +19°C° 0.1 mm 2 mps 638 mmHg 73%
    18:00 +18°C° 0.1 mm 2 mps 637 mmHg 78%
    19:00 +16°C° 0.1 mm 2 mps 637 mmHg 83%
    20:00 +14°C° 0.1 mm 1 mps 637 mmHg 89%
    21:00 +12°C° 0.1 mm 1 mps 637 mmHg 94%
    22:00 +12°C° 0 mm 1 mps 637 mmHg 94%
    23:00 +11°C° 0 mm 1 mps 637 mmHg 94%

    30 May, Thursday

    Time Temperature Precipitation Wind Pressure Humidity
    00:00 +11°C° 0 mm 1 mps 637 mmHg 94%
    01:00 +10°C° 0 mm 1 mps 637 mmHg 94%
    02:00 +10°C° 0 mm 1 mps 636 mmHg 93%
    03:00 +10°C° 0 mm 1 mps 636 mmHg 93%
    04:00 +11°C° 0 mm 1 mps 637 mmHg 91%
    05:00 +11°C° 0 mm 1 mps 637 mmHg 89%
    06:00 +12°C° 0 mm 1 mps 637 mmHg 87%
    07:00 +14°C° 0 mm 1 mps 638 mmHg 80%
    08:00 +16°C° 0 mm 1 mps 638 mmHg 73%
    09:00 +18°C° 0 mm 2 mps 638 mmHg 66%
    10:00 +19°C° 0 mm 2 mps 638 mmHg 63%
    11:00 +20°C° 0 mm 2 mps 638 mmHg 59%
    12:00 +21°C° 0 mm 2 mps 638 mmHg 56%
    13:00 +21°C° 0.1 mm 2 mps 638 mmHg 56%
    14:00 +21°C° 0.1 mm 2 mps 637 mmHg 56%
    15:00 +23°C° 0.1 mm 2 mps 637 mmHg 56%
    16:00 +21°C° 0.2 mm 2 mps 637 mmHg 62%
    17:00 +20°C° 0.2 mm 2 mps 637 mmHg 68%
    18:00 +19°C° 0.2 mm 2 mps 637 mmHg 75%
    19:00 +17°C° 0.1 mm 2 mps 636 mmHg 80%
    20:00 +15°C° 0.1 mm 1 mps 636 mmHg 85%
    21:00 +13°C° 0.1 mm 1 mps 636 mmHg 89%
    22:00 +12°C° 0 mm 1 mps 636 mmHg 89%
    23:00 +12°C° 0 mm 1 mps 636 mmHg 89%

    31 May, Friday

    Time Temperature Precipitation Wind Pressure Humidity
    00:00 +11°C° 0 mm 1 mps 636 mmHg 90%
    01:00 +11°C° 0 mm 1 mps 636 mmHg 90%
    02:00 +10°C° 0 mm 1 mps 635 mmHg 91%
    03:00 +10°C° 0 mm 1 mps 635 mmHg 91%
    04:00 +11°C° 0 mm 1 mps 635 mmHg 90%
    05:00 +11°C° 0 mm 1 mps 635 mmHg 89%
    06:00 +12°C° 0 mm 1 mps 636 mmHg 88%
    07:00 +14°C° 0 mm 1 mps 636 mmHg 82%
    08:00 +16°C° 0 mm 1 mps 636 mmHg 76%
    09:00 +18°C° 0 mm 2 mps 637 mmHg 70%
    10:00 +19°C° 0 mm 2 mps 637 mmHg 67%
    11:00 +20°C° 0 mm 2 mps 636 mmHg 64%
    12:00 +21°C° 0 mm 2 mps 636 mmHg 62%
    13:00 +21°C° 0.4 mm 2 mps 636 mmHg 63%
    14:00 +21°C° 0.4 mm 2 mps 636 mmHg 64%
    15:00 +21°C° 0.4 mm 2 mps 636 mmHg 65%
    16:00 +20°C° 0.4 mm 2 mps 635 mmHg 71%
    17:00 +19°C° 0.4 mm 2 mps 635 mmHg 77%
    18:00 +19°C° 0.4 mm 2 mps 635 mmHg 83%
    19:00 +17°C° 0.4 mm 2 mps 635 mmHg 86%
    20:00 +15°C° 0.4 mm 1 mps 635 mmHg 90%
    21:00 +13°C° 0.4 mm 1 mps 635 mmHg 93%
    22:00 +13°C° 0.1 mm 1 mps 635 mmHg 93%
    23:00 +12°C° 0.1 mm 1 mps 635 mmHg 92%

    1 June, Saturday

    Time Temperature Precipitation Wind Pressure Humidity
    00:00 +12°C° 0.1 mm 1 mps 635 mmHg 92%
    01:00 +12°C° 0 mm 1 mps 634 mmHg 93%
    02:00 +12°C° 0 mm 1 mps 634 mmHg 93%
    03:00 +11°C° 0 mm 1 mps 634 mmHg 94%
    04:00 +12°C° 0.1 mm 1 mps 634 mmHg 93%
    05:00 +13°C° 0.1 mm 1 mps 634 mmHg 91%
    06:00 +13°C° 0.1 mm 1 mps 635 mmHg 90%
    07:00 +15°C° 0 mm 1 mps 635 mmHg 83%
    08:00 +18°C° 0 mm 1 mps 635 mmHg 76%
    09:00 +20°C° 0 mm 1 mps 636 mmHg 69%
    10:00 +20°C° 0.1 mm 2 mps 636 mmHg 66%
    11:00 +21°C° 0.1 mm 2 mps 636 mmHg 64%
    12:00 +23°C° 0.1 mm 2 mps 636 mmHg 61%
    13:00 +23°C° 1.4 mm 2 mps 636 mmHg 63%
    14:00 +23°C° 1.4 mm 2 mps 635 mmHg 65%
    15:00 +23°C° 1.4 mm 2 mps 635 mmHg 67%
    16:00 +21°C° 2.2 mm 2 mps 635 mmHg 72%
    17:00 +20°C° 2.2 mm 2 mps 635 mmHg 78%
    18:00 +19°C° 2.2 mm 2 mps 634 mmHg 83%
    19:00 +17°C° 0.5 mm 2 mps 634 mmHg 88%
    20:00 +15°C° 0.5 mm 2 mps 634 mmHg 92%
    21:00 +14°C° 0.5 mm 2 mps 634 mmHg 96%
    22:00 +14°C° 0 mm 1 mps 634 mmHg 96%
    23:00 +13°C° 0 mm 1 mps 634 mmHg 97%
    Show more